Regional Weather Roundup
Issued by NWS

Home | Current Version | Previous Version | Graphics & Text | Print | Product List | Glossary Off
Versions: 1 2 3 4 5 6 7 8 9 10 11 12 13 14 15 16 17 18 19 20 21 22 23 24 25 26 27 28 29 30 31 32 33 34 35 36 37 38 39 40 41 42 43 44 45 46 47 48 49 50

000
ASUS43 KMKX 222111
RWRWI

WISCONSIN REGIONAL WEATHER ROUNDUP
NATIONAL WEATHER SERVICE MILWAUKEE/SULLIVAN WI
400 PM CDT TUE JUL 22 2014

NOTE: "FAIR" INDICATES FEW OR NO CLOUDS BELOW 12,000 FEET WITH NO
SIGNIFICANT WEATHER AND/OR OBSTRUCTIONS TO VISIBILITY.

WIZ001-002-006>008-014>016-023>028-222200-
NORTHWEST WISCONSIN

CITY           SKY/WX    TMP DP  RH WIND       PRES   REMARKS
SUPERIOR ARPT  MOSUNNY   78  58  49 NW14G20   30.01R
ASHLAND        MOSUNNY   77  63  61 N12       30.02R
HAYWARD        MOSUNNY   79  60  52 N10G20    30.02R HX  80
SIREN          PTSUNNY   79  60  51 N9        30.03S HX  80
RICE LAKE      PTSUNNY   79  60  52 N8        30.04R HX  80
LADYSMITH      PTSUNNY   79  64  61 W10       30.03S HX  81
EAU CLAIRE     PTSUNNY   81  64  56 NW17G23   30.00R HX  82
MENOMONIE      MOCLDY    81  63  54 NW10      30.02R HX  82
NEW RICHMOND   MOSUNNY   79  62  55 N7        30.04S HX  80
OSCEOLA        PTSUNNY   81  63  54 W8        30.06R HX  82
$$

WIZ003>005-009-010-017-018-222200-
NORTH CENTRAL WISCONSIN

CITY           SKY/WX    TMP DP  RH WIND       PRES   REMARKS
WOODRUFF       CLOUDY    72  64  77 NW9       30.01R
RHINELANDER    LGT RAIN  70  63  78 NW12G22   30.01R
EAGLE RIVER    DRIZZLE   69  63  82 NW9G18    30.00R
LAND O LAKES   CLOUDY    70  64  80 NW8       30.01R
PHILLIPS       PTSUNNY   74  65  71 NW8       30.01R
TOMAHAWK       CLOUDY    74  62  66 NW12G22   30.01R
MEDFORD        CLOUDY    75  64  68 NW15      30.01R
MERRILL        PTSUNNY   78  66  66 NW12      29.97R HX  80
$$

WIZ029-030-035-036-043>047-222200-
CENTRAL WISCONSIN

CITY           SKY/WX    TMP DP  RH WIND       PRES   REMARKS
WAUSAU         MOSUNNY   83  64  52 NW16      29.94R HX  84
MOSINEE        NOT AVBL
MARSHFIELD     MOSUNNY   81  66  60 NW15      29.97R HX  83
STEVENS POINT  SUNNY     84  64  51 NW14G20   29.96R HX  85
WAUPACA        MOSUNNY   94  63  36 W14       29.90S HX  95
WAUTOMA        MOSUNNY   91  70  50 NW15      29.91S HX  96
WISC RAPIDS    SUNNY     88  66  48 NW17      29.97R HX  90
CAMP DOUGLAS   MOSUNNY   86  72  62 NW12      29.96R HX  92
$$

WIZ011>013-019>022-031-037>040-048>050-222200-
NORTHEAST WISCONSIN

CITY           SKY/WX    TMP DP  RH WIND       PRES   REMARKS
ANTIGO         PTSUNNY   79  66  63 NW10G20   29.96R HX  81
STURGEON BAY   MOSUNNY   90  73  58 W13       29.86S HX  98
GREEN BAY      PTSUNNY   89  73  59 NW15G23   29.87R HX  97
MANITOWOC      MOSUNNY   89  73  59 W14G21    29.87F HX  97
APPLETON       PTSUNNY   90  72  55 NW17G23   29.89R HX  96
CLINTONVILLE   SUNNY     90  61  37 NW16      29.89R HX  89
OSHKOSH        MOSUNNY   91  74  57 W10       29.88S HX 100
$$

WIZ032>034-041-042-053>061-222200-
SOUTHWEST WISCONSIN

CITY           SKY/WX    TMP DP  RH WIND       PRES   REMARKS
LA CROSSE      MOSUNNY   89  67  47 NW15      29.97R HX  92
SPARTA         MOSUNNY   87  65  47 W10       29.98R HX  88
VIROQUA        FAIR      86  69  57 NW14      30.00R HX  90
BOSCOBEL       MOSUNNY   96  73  47 NW12      29.92F HX 105
PRAIRIE DU CHI MOSUNNY   93  70  47 W9        29.93S HX  98
PLATTEVILLE    FAIR      90  75  62 W9        29.95F HX 100
$$

WIZ056-057-062-063-064-067-068-222200-
SOUTH CENTRAL WISCONSIN

CITY           SKY/WX    TMP DP  RH WIND       PRES   REMARKS
BARABOO/DELLS  MOSUNNY   89  70  53 W8        29.93S HX  95
LONE ROCK      MOSUNNY   96  74  48 NW10      29.92F HX 107
WATERTOWN      PTSUNNY   88  78  71 SW12      29.91S HX 100
MADISON        PTSUNNY   92  74  55 W9        29.92S HX 101
MIDDLETON      FAIR      93  71  49 W12       29.93S HX 100
MONROE         PTSUNNY   88  77  70 SW14      29.95F HX 100
JANESVILLE     PTSUNNY   88  73  62 SW16      29.93S HX  96
$$

WIZ051-052-058>065-066-070>072-222200-
SOUTHEAST WISCONSIN

CITY           SKY/WX    TMP DP  RH WIND       PRES   REMARKS
MILWAUKEE      CLOUDY    87  73  62 SW14      29.91R HX  94
WAUKESHA       PTSUNNY   84  73  70 SW10      29.94R HX  91
MILWAUKEE/TIMM CLOUDY    86  72  62 SW13      29.91R HX  92
RACINE         CLOUDY    86  74  67 W13G20    29.93R HX  94
BURLINGTON     CLOUDY    82  74  77 SW10      29.94R HX  87
KENOSHA        CLOUDY    85  74  69 SW16G23   29.94R HX  92
FOND DU LAC    MOSUNNY   89  72  56 W9G18     29.90R HX  96
SHEBOYGAN      MOSUNNY   88  74  63 W12       29.89S HX  96
WEST BEND      PTSUNNY   88  72  58 W12       29.91S HX  94
JUNEAU         PTSUNNY   89  59  36 SW13      29.92F HX  88
$$

LSZ147-162-222200-
LAKE SUPERIOR

STATION/POSITION TIME  TEMP    WIND        PRES    WAVE
                       AIR SEA DIR/SP/G            HT/PER
                 (UTC) (F)     (DEG/KT/KT) (MB)    (FT/S)
W MID LAKE BUOY  2050   50 40  290/ 10/ 10 1015.3R   2/ 5
PORT WING        2040   69     340/  2/  3 1016.3R
SAXON HARBOR     2000          300/  9/ 11 1015.6R
$$

LMZ867-665-643>646-222200-
LAKE MICHIGAN

STATION/POSITION TIME  TEMP    WIND        PRES    WAVE
                       AIR SEA DIR/SP/G            HT/PER
                 (UTC) (F)     (DEG/KT/KT) (MB)    (FT/S)
N MID LAKE BUOY  2050   63 58  220/ 16/ 19 1009.9R   6/ 6
NORTHPORT PIER   2000          210/  7/ 17 1009.8R
KEWAUNEE LAKESHO 2000   58     160/  6/  9 1011.8R
SHEBOYGAN LAKESH 2100   75     180/  9/ 12 1011.7S
PORT WASHINGTON  2000   67      60/  3/  8 1012.5R
ATWATER BUOY     2100   75     220/ 12     1013.6R
MILWAUKEE LAKESH 2000   85     230/ 12/ 15   N/A
S MID LAKE BUOY  2050   73 68  180/ 16/ 17 1012.7F   2/ 4
KENOSHA   LAKESH 2100   87     230/ 13/ 21   N/A
$$

TC  - TEMPERATURE IN CELSIUS
VSB - VISIBILITY IN STATUTE MILES
WCI - WIND CHILL INDEX
HX  - HEAT INDEX



USA.gov is the U.S. government's official web portal to all federal, state and local government web resources and services.